TimeEST,TemperatureF,Dew PointF,Humidity,Sea Level PressureIn,VisibilityMPH,Wind Direction,Wind SpeedMPH,Gust SpeedMPH,PrecipitationIn,Events,Conditions,WindDirDegrees,DateUTC
12:15 AM,46.4,39.2,76,30.35,10.0,NNE,4.6,-,N/A,,Overcast,20,2013-01-08 05:15:00
12:35 AM,46.4,39.2,76,30.35,10.0,North,4.6,-,N/A,,Mostly Cloudy,10,2013-01-08 05:35:00
12:55 AM,46.4,39.2,76,30.34,10.0,NNE,4.6,-,N/A,,Mostly Cloudy,20,2013-01-08 05:55:00
1:15 AM,44.6,39.2,81,30.34,10.0,North,5.8,-,N/A,,Partly Cloudy,10,2013-01-08 06:15:00
1:35 AM,44.6,39.2,81,30.34,10.0,NNE,3.5,-,N/A,,Clear,20,2013-01-08 06:35:00
1:55 AM,44.6,39.2,81,30.33,10.0,NNE,3.5,-,N/A,,Clear,20,2013-01-08 06:55:00
2:15 AM,44.6,39.2,81,30.32,10.0,NNE,4.6,-,N/A,,Partly Cloudy,20,2013-01-08 07:15:00
2:35 AM,44.6,41.0,87,30.33,10.0,NNE,3.5,-,N/A,,Mostly Cloudy,20,2013-01-08 07:35:00
2:55 AM,46.4,41.0,81,30.32,10.0,NNE,5.8,-,N/A,,Mostly Cloudy,20,2013-01-08 07:55:00
3:15 AM,44.6,41.0,87,30.32,10.0,NNE,5.8,-,N/A,,Partly Cloudy,20,2013-01-08 08:15:00
3:35 AM,44.6,41.0,87,30.32,10.0,NNE,4.6,-,N/A,,Clear,20,2013-01-08 08:35:00
3:55 AM,44.6,41.0,87,30.31,10.0,NNE,4.6,-,N/A,,Partly Cloudy,30,2013-01-08 08:55:00
4:15 AM,44.6,41.0,87,30.31,10.0,NNE,4.6,-,N/A,,Clear,20,2013-01-08 09:15:00
4:35 AM,44.6,41.0,87,30.31,10.0,NNE,5.8,-,N/A,,Clear,20,2013-01-08 09:35:00
4:55 AM,46.4,41.0,81,30.31,10.0,NE,6.9,-,N/A,,Mostly Cloudy,40,2013-01-08 09:55:00
5:15 AM,46.4,41.0,81,30.31,10.0,NNE,5.8,-,N/A,,Scattered Clouds,30,2013-01-08 10:15:00
5:35 AM,46.4,39.2,76,30.32,10.0,NNE,5.8,-,N/A,,Partly Cloudy,30,2013-01-08 10:35:00
5:55 AM,46.4,39.2,76,30.32,10.0,NNE,6.9,-,N/A,,Mostly Cloudy,20,2013-01-08 10:55:00
6:15 AM,46.4,39.2,76,30.33,10.0,NNE,5.8,-,N/A,,Mostly Cloudy,20,2013-01-08 11:15:00
6:35 AM,46.4,39.2,76,30.34,10.0,NNE,4.6,-,N/A,,Mostly Cloudy,30,2013-01-08 11:35:00
6:55 AM,46.4,39.2,76,30.35,10.0,North,5.8,-,N/A,,Mostly Cloudy,10,2013-01-08 11:55:00
7:15 AM,44.6,39.2,81,30.35,10.0,NNE,4.6,-,N/A,,Partly Cloudy,30,2013-01-08 12:15:00
7:35 AM,44.6,39.2,81,30.35,10.0,NNE,5.8,-,N/A,,Clear,20,2013-01-08 12:35:00
7:55 AM,44.6,37.4,76,30.36,10.0,NNE,4.6,-,N/A,,Clear,20,2013-01-08 12:55:00
8:15 AM,44.6,39.2,81,30.38,10.0,NNE,5.8,-,N/A,,Partly Cloudy,30,2013-01-08 13:15:00
8:35 AM,46.4,39.2,76,30.38,10.0,NNE,4.6,-,N/A,,Clear,20,2013-01-08 13:35:00
8:55 AM,48.2,39.2,71,30.38,10.0,North,3.5,-,N/A,,Clear,360,2013-01-08 13:55:00
9:15 AM,50.0,41.0,71,30.38,10.0,NNE,5.8,-,N/A,,Partly Cloudy,30,2013-01-08 14:15:00
9:35 AM,51.8,42.8,71,30.39,10.0,Calm,Calm,-,N/A,,Clear,0,2013-01-08 14:35:00
9:55 AM,53.6,44.6,72,30.40,10.0,NNE,4.6,-,N/A,,Clear,20,2013-01-08 14:55:00
10:15 AM,53.6,44.6,72,30.39,10.0,Calm,Calm,-,N/A,,Clear,0,2013-01-08 15:15:00
10:35 AM,57.2,46.4,67,30.39,10.0,Calm,Calm,-,N/A,,Clear,0,2013-01-08 15:35:00
10:55 AM,59.0,48.2,67,30.38,10.0,NE,5.8,-,N/A,,Clear,40,2013-01-08 15:55:00
11:15 AM,60.8,48.2,63,30.37,10.0,NE,3.5,-,N/A,,Clear,40,2013-01-08 16:15:00
11:35 AM,62.6,51.8,68,30.36,10.0,ENE,5.8,-,N/A,,Partly Cloudy,60,2013-01-08 16:35:00
11:55 AM,64.4,51.8,64,30.35,10.0,NE,3.5,-,N/A,,Clear,50,2013-01-08 16:55:00
12:15 PM,64.4,53.6,68,30.35,9.0,Calm,Calm,-,N/A,,Clear,0,2013-01-08 17:15:00
12:35 PM,66.2,53.6,64,30.34,10.0,ENE,4.6,-,N/A,,Clear,60,2013-01-08 17:35:00
12:55 PM,66.2,55.4,68,30.34,10.0,Calm,Calm,-,N/A,,Clear,0,2013-01-08 17:55:00
1:15 PM,66.2,55.4,68,30.33,9.0,ENE,6.9,-,N/A,,Clear,60,2013-01-08 18:15:00
1:35 PM,68.0,55.4,64,30.32,9.0,NE,4.6,-,N/A,,Clear,40,2013-01-08 18:35:00
1:55 PM,69.8,55.4,60,30.32,10.0,ENE,3.5,-,N/A,,Clear,60,2013-01-08 18:55:00
2:15 PM,69.8,55.4,60,30.32,9.0,NE,4.6,-,N/A,,Clear,40,2013-01-08 19:15:00
2:35 PM,69.8,55.4,60,30.32,10.0,Calm,Calm,-,N/A,,Scattered Clouds,0,2013-01-08 19:35:00
2:55 PM,69.8,55.4,60,30.32,10.0,East,4.6,-,N/A,,Scattered Clouds,90,2013-01-08 19:55:00
3:15 PM,69.8,55.4,60,30.32,9.0,ESE,3.5,-,N/A,,Partly Cloudy,110,2013-01-08 20:15:00
3:35 PM,68.0,55.4,64,30.32,10.0,ESE,5.8,-,N/A,,Clear,110,2013-01-08 20:35:00
3:55 PM,66.2,55.4,68,30.32,9.0,East,5.8,-,N/A,,Clear,80,2013-01-08 20:55:00
4:15 PM,66.2,55.4,68,30.31,9.0,ENE,3.5,-,N/A,,Clear,70,2013-01-08 21:15:00
4:35 PM,64.4,55.4,73,30.32,9.0,ENE,3.5,-,N/A,,Clear,70,2013-01-08 21:35:00
4:55 PM,62.6,55.4,77,30.32,10.0,Calm,Calm,-,N/A,,Clear,0,2013-01-08 21:55:00
5:15 PM,62.6,55.4,77,30.32,10.0,Calm,Calm,-,N/A,,Clear,0,2013-01-08 22:15:00
5:35 PM,60.8,53.6,77,30.33,10.0,NE,3.5,-,N/A,,Clear,40,2013-01-08 22:35:00
5:55 PM,60.8,53.6,77,30.33,10.0,ENE,3.5,-,N/A,,Clear,60,2013-01-08 22:55:00
6:15 PM,59.0,53.6,82,30.33,10.0,Calm,Calm,-,N/A,,Clear,0,2013-01-08 23:15:00
6:35 PM,57.2,53.6,88,30.33,10.0,NE,4.6,-,N/A,,Clear,50,2013-01-08 23:35:00
6:55 PM,57.2,53.6,88,30.34,10.0,Calm,Calm,-,N/A,,Clear,0,2013-01-08 23:55:00
7:15 PM,57.2,53.6,88,30.35,10.0,Calm,Calm,-,N/A,,Clear,0,2013-01-09 00:15:00
7:35 PM,55.4,53.6,94,30.35,10.0,Calm,Calm,-,N/A,,Clear,0,2013-01-09 00:35:00
7:55 PM,55.4,51.8,88,30.35,10.0,Calm,Calm,-,N/A,,Clear,0,2013-01-09 00:55:00
8:15 PM,55.4,51.8,88,30.35,10.0,Calm,Calm,-,N/A,,Clear,0,2013-01-09 01:15:00
8:35 PM,55.4,51.8,88,30.35,10.0,NE,3.5,-,N/A,,Clear,40,2013-01-09 01:35:00
8:55 PM,53.6,51.8,94,30.35,10.0,Calm,Calm,-,N/A,,Clear,0,2013-01-09 01:55:00
9:15 PM,51.8,51.8,100,30.35,9.0,Calm,Calm,-,N/A,,Clear,0,2013-01-09 02:15:00
9:35 PM,53.6,51.8,94,30.35,9.0,Calm,Calm,-,N/A,,Clear,0,2013-01-09 02:35:00
9:55 PM,51.8,51.8,100,30.35,8.0,NNE,3.5,-,N/A,,Clear,20,2013-01-09 02:55:00
10:15 PM,53.6,51.8,94,30.35,8.0,NNE,3.5,-,N/A,,Clear,30,2013-01-09 03:15:00
10:35 PM,51.8,51.8,100,30.35,8.0,Calm,Calm,-,N/A,,Clear,0,2013-01-09 03:35:00
10:55 PM,51.8,50.0,94,30.36,7.0,Calm,Calm,-,N/A,,Clear,0,2013-01-09 03:55:00
11:15 PM,51.8,50.0,94,30.36,7.0,NNE,3.5,-,N/A,,Scattered Clouds,20,2013-01-09 04:15:00
11:35 PM,53.6,51.8,94,30.36,9.0,NE,3.5,-,N/A,,Mostly Cloudy,40,2013-01-09 04:35:00
11:55 PM,53.6,51.8,94,30.35,10.0,Calm,Calm,-,N/A,,Mostly Cloudy,0,2013-01-09 04:55:00